loading
DOY 205 | 2024-07-23T03:00:46Z

SCOUT X-4 R/B, 1358

Orbit data source: Space-Track

SCOUT X-4 R/B, 1358 is space debris in LEO originally from a launch on Thu, 29 Apr 1965 UTC launched from the Wallops Island (WLPIS). Debris objects in space refer to the collection of defunct objects orbiting the Earth. Examples of debris include non-operational satellites, rocket bodies, and fragments generated from explosions, collisions, or faulty payload assembly.

Loading next visibility...
Loading greatness...
SCOUT X-4 R/B details
NORAD ID1358
COSPAR ID
1965-032B
Orbit
LEO
Last TLE update21 hours ago
Origin
Flag of USNASA LaRC (US)
ManufacturerABL
BusAltair
MotorUnknown
Mass33 kg wet, 33 kg dry
Launch date (UTC)
1965-04-29 (59 years ago)
Launch vehicleUnknown
Launch site
Wallops Island (WLPIS)
Object type
Payload
Rocket body
Debris
Radar Cross Section0.46 m², Medium (>0.1 m² and < 1m²)
Predictive object data (real-time)
Latitude-33.2009°
Longitude-10.54732°
Altitude947.014 km
Speed7.466 km/s
Apparent Right ascension02h 37m 20s
Apparent Declination-37° 48' 27"
Sunlit
Object is in daylight
Predictive observer data (real-time)
Local Sidereal Time16:05:41
Azimuth90.081° ESE
Elevation-72.716°
Doppler factor1
Orbital elements
Apogee1,303.476 km
Perigee932.878 km
Semi-major axis7,496.314 km
Eccentricity0.0247187
Inclination41.1898°
RAAN157.5178°
Arg. of periapsis215.2581°
True anomaly144.81681°
Mean anomaly143.1597°
Mean motion3.34404 °/min
BSTAR0.000077701
Period107.65 mins
Definitive object data (Epoch: 2024-07-22T06:07:40.115Z)
Latitude-0.00001°
Longitude125.10994°
Altitude1,265.558 km
Speed7.152 km/s
True Right ascension10h 30m 04s
True Declination0° 00' 00"
Sunlit
Object was in daylight at TLE epoch
TLE from 21 hours ago
0 SCOUT X-4 R/B
1 01358U 65032B   24204.25532541 -.00000029  00000-0  77701-4 0  9990
2 01358  41.1898 157.5178 0247187 215.2581 143.1597 13.38166586894577
Epoch: 2024-07-22T06:07Z
No data available
Other satellites on launch #32 in the year 1965 (1965-04-29 UTC)

SCOUT X-4 R/B Visibility forecast

Observer location: 39.9160978°, -105.1181434

SCOUT X-4 R/B is not visible in the next 10 days
Span
Click to sort rows by Start time (UTC) header in descending order
Start Az.
Max El. time (UTC)
Max El. Az.
Max El.
End time (UTC)
End Az.